QPF
0.00 0.00 0.00 0.02 0.02 0.03 0.01 0.00 0.00 0.00 0.00 0.00 0.00 0.00 0.00 0.00 0.00 0.00 0.00 0.00 0.00 0.00 0.00 0.00 0.00 0.00 0.00 0.00 0.00 0.00 0.00 0.00 0.00 0.00 0.00 0.00 0.00 0.00 0.00 0.00 0.00 0.00 0.00 0.00 0.00 0.00 0.00
0.00 0.00 0.00 0.00 0.01 0.02 0.03 0.02 0.00 0.00 0.00 0.00 0.00 0.00 0.00 0.00 0.00 0.00 0.00 0.00 0.00 0.00 0.00 0.00 0.00 0.00 0.00 0.00 0.00 0.00 0.00 0.00 0.00 0.00 0.00 0.00 0.00 0.00 0.00 0.00 0.00 0.00 0.00 0.00 0.00 0.00 0.00
0.00 0.00 0.00 0.00 0.00 0.01 0.02 0.02 0.01 0.00 0.00 0.00 0.00 0.00 0.00 0.00 0.00 0.00 0.00 0.00 0.00 0.00 0.00 0.00 0.00 0.00 0.00 0.00 0.00 0.00 0.00 0.00 0.00 0.00 0.00 0.00 0.00 0.00 0.00 0.00 0.00 0.00 0.00 0.00 0.00 0.00 0.00
0.00 0.00 0.00 0.00 0.00 0.01 0.01 0.01 0.01 0.00 0.00 0.00 0.00 0.00 0.00 0.00 0.00 0.00 0.00 0.00 0.00 0.00 0.00 0.00 0.00 0.00 0.00 0.00 0.00 0.00 0.00 0.00 0.00 0.00 0.00 0.00 0.00 0.00 0.00 0.00 0.00 0.00 0.00 0.00 0.00 0.00 0.00
0.00 0.00 0.00 0.00 0.00 0.00 0.00 0.00 0.01 0.01 0.00 0.00 0.00 0.00 0.00 0.00 0.00 0.00 0.00 0.00 0.00 0.00 0.00 0.00 0.00 0.00 0.00 0.00 0.00 0.00 0.00 0.00 0.00 0.00 0.00 0.00 0.00 0.00 0.00 0.00 0.00 0.00 0.00 0.00 0.00 0.00 0.00
0.01 0.00 0.00 0.00 0.00 0.00 0.00 0.01 0.01 0.01 0.01 0.00 0.00 0.00 0.00 0.00 0.00 0.00 0.00 0.00 0.00 0.00 0.00 0.00 0.00 0.00 0.00 0.00 0.00 0.00 0.00 0.00 0.00 0.00 0.00 0.00 0.00 0.00 0.00 0.00 0.00 0.00 0.00 0.00 0.00 0.00 0.00
0.01 0.01 0.00 0.00 0.00 0.00 0.01 0.00 0.01 0.02 0.01 0.00 0.00 0.00 0.00 0.00 0.00 0.00 0.00 0.01 0.01 0.01 0.01 0.00 0.00 0.00 0.00 0.00 0.00 0.00 0.00 0.00 0.00 0.00 0.00 0.00 0.00 0.00 0.00 0.00 0.00 0.00 0.00 0.00 0.00 0.00 0.00
0.01 0.01 0.00 0.00 0.00 0.00 0.01 0.01 0.00 0.00 0.02 0.01 0.00 0.00 0.00 0.00 0.00 0.00 0.00 0.00 0.00 0.00 0.00 0.00 0.00 0.00 0.00 0.00 0.00 0.00 0.00 0.00 0.00 0.00 0.00 0.00 0.00 0.00 0.00 0.00 0.00 0.00 0.00 0.00 0.00 0.00 0.00
0.02 0.01 0.01 0.00 0.00 0.00 0.00 0.01 0.00 0.00 0.01 0.01 0.00 0.00 0.00 0.00 0.00 0.02 0.00 0.00 0.00 0.00 0.00 0.00 0.00 0.00 0.00 0.00 0.00 0.00 0.00 0.00 0.00 0.00 0.00 0.00 0.00 0.00 0.00 0.00 0.00 0.00 0.00 0.00 0.00 0.00 0.00
0.02 0.02 0.01 0.01 0.00 0.00 0.00 0.01 0.01 0.00 0.00 0.01 0.01 0.00 0.00 0.00 0.00 0.01 0.01 0.00 0.00 0.00 0.00 0.00 0.00 0.00 0.00 0.00 0.00 0.00 0.00 0.00 0.00 0.00 0.00 0.00 0.00 0.00 0.00 0.00 0.00 0.00 0.00 0.00 0.00 0.00 0.00
0.02 0.02 0.02 0.01 0.00 0.00 0.00 0.00 0.01 0.01 0.00 0.01 0.02 0.01 0.00 0.00 0.00 0.00 0.00 0.01 0.00 0.00 0.00 0.00 0.00 0.00 0.00 0.00 0.00 0.00 0.00 0.00 0.00 0.00 0.00 0.00 0.00 0.00 0.00 0.00 0.00 0.00 0.00 0.00 0.00 0.00 0.00
0.01 0.02 0.02 0.01 0.01 0.00 0.00 0.00 0.00 0.01 0.01 0.00 0.01 0.02 0.01 0.00 0.00 0.00 0.00 0.00 0.00 0.00 0.00 0.00 0.00 0.00 0.00 0.00 0.00 0.00 0.00 0.00 0.00 0.00 0.00 0.00 0.00 0.00 0.00 0.00 0.00 0.00 0.00 0.00 0.00 0.00 0.00
0.00 0.00 0.01 0.01 0.01 0.00 0.00 0.00 0.00 0.01 0.00 0.01 0.01 0.02 0.01 0.00 0.00 0.00 0.00 0.00 0.00 0.00 0.00 0.00 0.00 0.00 0.00 0.00 0.00 0.00 0.00 0.00 0.00 0.00 0.00 0.00 0.00 0.00 0.00 0.00 0.00 0.00 0.00 0.00 0.00 0.00 0.00
0.00 0.00 0.00 0.00 0.00 0.00 0.00 0.00 0.00 0.01 0.01 0.01 0.00 0.01 0.01 0.01 0.01 0.01 0.00 0.00 0.00 0.00 0.00 0.00 0.00 0.00 0.00 0.00 0.00 0.00 0.00 0.00 0.00 0.00 0.00 0.00 0.00 0.00 0.00 0.00 0.00 0.00 0.00 0.00 0.00 0.00 0.00
0.00 0.01 0.01 0.00 0.00 0.00 0.00 0.00 0.00 0.00 0.00 0.01 0.02 0.02 0.03 0.02 0.02 0.01 0.00 0.00 0.00 0.00 0.00 0.00 0.00 0.00 0.00 0.00 0.00 0.00 0.00 0.00 0.00 0.00 0.00 0.00 0.00 0.00 0.00 0.00 0.00 0.00 0.00 0.00 0.00 0.00 0.00
0.00 0.01 0.01 0.01 0.00 0.00 0.00 0.00 0.00 0.00 0.00 0.01 0.02 0.02 0.03 0.04 0.02 0.01 0.00 0.00 0.00 0.00 0.00 0.00 0.00 0.00 0.00 0.00 0.00 0.00 0.00 0.00 0.00 0.00 0.00 0.00 0.00 0.00 0.00 0.00 0.00 0.00 0.00 0.00 0.00 0.00 0.00
0.01 0.02 0.02 0.02 0.01 0.00 0.00 0.00 0.00 0.00 0.00 0.02 0.03 0.02 0.03 0.05 0.02 0.00 0.00 0.00 0.00 0.00 0.00 0.00 0.00 0.00 0.00 0.00 0.00 0.00 0.00 0.00 0.00 0.00 0.00 0.00 0.00 0.00 0.00 0.00 0.00 0.00 0.00 0.00 0.00 0.00 0.00
0.04 0.05 0.03 0.02 0.01 0.00 0.00 0.01 0.00 0.00 0.01 0.06 0.04 0.00 0.04 0.08 0.04 0.00 0.00 0.00 0.00 0.00 0.00 0.00 0.00 0.00 0.00 0.00 0.00 0.00 0.00 0.00 0.00 0.00 0.00 0.00 0.00 0.00 0.00 0.00 0.00 0.00 0.00 0.00 0.00 0.00 0.00
0.04 0.04 0.03 0.02 0.01 0.00 0.00 0.00 0.00 0.00 0.01 0.05 0.05 0.01 0.02 0.06 0.02 0.00 0.00 0.00 0.00 0.00 0.00 0.00 0.00 0.00 0.00 0.00 0.01 0.00 0.00 0.00 0.00 0.00 0.00 0.00 0.00 0.00 0.00 0.00 0.00 0.00 0.00 0.00 0.00 0.00 0.00
0.02 0.02 0.02 0.01 0.00 0.00 0.00 0.00 0.00 0.01 0.01 0.05 0.03 0.01 0.01 0.02 0.01 0.00 0.00 0.00 0.00 0.00 0.00 0.00 0.00 0.00 0.00 0.01 0.00 0.00 0.00 0.00 0.00 0.00 0.00 0.00 0.00 0.00 0.00 0.00 0.00 0.00 0.00 0.00 0.00 0.00 0.00
0.00 0.02 0.03 0.02 0.01 0.00 0.00 0.00 0.00 0.00 0.01 0.05 0.03 0.00 0.00 0.00 0.00 0.00 0.00 0.00 0.00 0.00 0.00 0.00 0.00 0.00 0.00 0.00 0.00 0.00 0.00 0.00 0.00 0.00 0.00 0.00 0.01 0.00 0.00 0.00 0.00 0.00 0.00 0.00 0.00 0.00 0.00
0.00 0.00 0.02 0.03 0.02 0.01 0.01 0.00 0.00 0.00 0.03 0.07 0.01 0.01 0.01 0.00 0.00 0.00 0.00 0.00 0.00 0.00 0.00 0.00 0.00 0.00 0.00 0.00 0.00 0.00 0.00 0.00 0.00 0.00 0.01 0.01 0.02 0.01 0.00 0.00 0.00 0.00 0.00 0.00 0.00 0.00 0.00
0.00 0.00 0.00 0.02 0.03 0.01 0.02 0.01 0.00 0.01 0.06 0.05 0.02 0.01 0.01 0.01 0.01 0.00 0.00 0.00 0.00 0.00 0.00 0.00 0.00 0.00 0.00 0.00 0.00 0.00 0.00 0.00 0.00 0.00 0.01 0.02 0.02 0.00 0.00 0.01 0.02 0.01 0.00 0.00 0.00 0.00 0.00
0.00 0.01 0.01 0.01 0.03 0.03 0.02 0.01 0.00 0.01 0.04 0.02 0.01 0.01 0.01 0.00 0.02 0.00 0.00 0.01 0.01 0.01 0.00 0.00 0.00 0.01 0.00 0.01 0.01 0.00 0.00 0.00 0.00 0.00 0.01 0.01 0.03 0.04 0.01 0.01 0.01 0.00 0.00 0.00 0.00 0.00 0.00
0.00 0.01 0.03 0.03 0.02 0.03 0.01 0.01 0.01 0.02 0.04 0.03 0.02 0.04 0.01 0.01 0.01 0.01 0.01 0.00 0.02 0.04 0.03 0.01 0.00 0.00 0.01 0.01 0.00 0.00 0.00 0.00 0.00 0.00 0.00 0.01 0.03 0.01 0.01 0.00 0.00 0.00 0.00 0.00 0.00 0.00 0.00
0.00 0.00 0.00 0.02 0.02 0.03 0.03 0.02 0.03 0.03 0.05 0.04 0.02 0.04 0.04 0.01 0.01 0.01 0.01 0.02 0.02 0.02 0.02 0.02 0.02 0.01 0.01 0.01 0.00 0.00 0.00 0.00 0.00 0.00 0.00 0.00 0.02 0.02 0.01 0.01 0.00 0.00 0.00 0.00 0.00 0.00 0.00
0.00 0.00 0.00 0.00 0.01 0.04 0.07 0.07 0.05 0.04 0.04 0.04 0.02 0.03 0.03 0.01 0.01 0.00 0.02 0.03 0.02 0.02 0.01 0.01 0.01 0.01 0.01 0.00 0.00 0.00 0.01 0.01 0.00 0.00 0.00 0.00 0.00 0.00 0.00 0.00 0.00 0.00 0.00 0.00 0.00 0.00 0.00
0.00 0.01 0.01 0.00 0.01 0.03 0.08 0.08 0.07 0.04 0.02 0.02 0.01 0.02 0.02 0.00 0.00 0.00 0.01 0.03 0.03 0.02 0.01 0.00 0.00 0.00 0.00 0.00 0.00 0.00 0.00 0.00 0.01 0.00 0.00 0.00 0.00 0.00 0.00 0.00 0.00 0.00 0.00 0.00 0.00 0.00 0.00
0.01 0.01 0.01 0.01 0.00 0.01 0.04 0.07 0.05 0.03 0.01 0.01 0.01 0.02 0.02 0.00 0.00 0.00 0.00 0.01 0.01 0.01 0.01 0.00 0.00 0.00 0.00 0.00 0.00 0.00 0.00 0.00 0.00 0.00 0.00 0.00 0.00 0.00 0.00 0.00 0.00 0.00 0.00 0.00 0.00 0.00 0.00
MSLP
1012.62 1012.51 1012.47 1012.40 1012.30 1011.89 1011.39 1011.63 1011.80 1011.59 1011.85 1012.24 1012.61 1013.22 1013.74 1014.12 1014.60 1015.08 1015.51 1015.90 1016.33 1016.56 1016.52 1016.55 1016.31 1016.06 1015.06 1013.06 1011.19 1012.12 1012.59 1012.42 1011.77 1011.30 1010.54 1009.87 1009.14 1008.34 1007.72 1007.40 1007.43 1007.19 1006.25 1006.81 1006.79 1007.17 1007.15
1011.71 1011.76 1011.67 1011.64 1011.66 1011.52 1011.50 1011.27 1011.26 1011.29 1011.21 1011.54 1011.89 1012.48 1013.08 1013.49 1014.08 1014.65 1015.16 1015.67 1016.20 1016.47 1016.56 1016.50 1016.32 1016.07 1014.73 1012.43 1011.29 1011.57 1011.81 1011.71 1011.24 1010.87 1010.53 1010.08 1009.53 1009.38 1008.47 1008.20 1007.91 1007.70 1007.36 1006.83 1006.60 1006.63 1006.55
1010.80 1010.75 1010.76 1010.82 1010.95 1011.30 1011.21 1010.77 1010.95 1010.96 1010.79 1010.72 1011.31 1011.84 1012.42 1012.81 1013.64 1014.20 1014.81 1015.45 1016.04 1016.48 1016.55 1016.58 1016.42 1015.50 1013.91 1011.70 1011.19 1011.50 1011.93 1011.31 1011.47 1011.14 1010.60 1010.84 1010.55 1009.97 1009.34 1008.54 1008.47 1008.02 1007.40 1006.07 1005.95 1005.99 1006.11
1009.74 1009.82 1009.89 1010.03 1010.31 1010.31 1010.57 1010.70 1010.76 1010.74 1010.69 1010.36 1010.40 1011.25 1011.76 1012.28 1013.08 1013.84 1014.63 1015.25 1015.93 1016.38 1016.62 1016.70 1016.39 1015.21 1012.75 1011.08 1011.07 1011.49 1011.60 1011.68 1011.87 1011.96 1011.69 1011.47 1011.22 1010.39 1009.81 1009.10 1008.52 1007.60 1006.61 1005.41 1004.26 1005.61 1006.11
1008.86 1008.77 1008.88 1009.15 1009.34 1009.42 1009.66 1009.97 1009.93 1009.87 1010.36 1009.98 1010.01 1010.50 1011.17 1011.79 1012.54 1013.55 1014.37 1015.27 1015.94 1016.39 1016.56 1016.68 1016.06 1014.82 1011.97 1011.94 1011.55 1011.14 1011.28 1011.16 1011.42 1011.92 1011.97 1012.07 1011.46 1010.40 1009.94 1009.06 1007.41 1006.53 1005.22 1004.26 1004.13 1005.30 1005.54
1007.94 1007.86 1007.79 1007.96 1008.31 1008.67 1009.12 1009.18 1009.13 1009.75 1009.72 1010.00 1010.20 1010.08 1010.45 1011.50 1012.23 1013.11 1014.17 1015.47 1016.08 1016.53 1016.43 1015.71 1014.99 1014.54 1011.62 1010.37 1010.11 1010.48 1010.63 1011.13 1011.20 1011.62 1011.91 1012.00 1011.08 1009.96 1009.10 1008.06 1005.91 1004.70 1004.39 1004.11 1004.32 1004.70 1005.76
1007.06 1006.75 1006.77 1006.78 1007.17 1007.51 1007.79 1007.94 1008.50 1008.82 1008.86 1009.30 1009.52 1009.90 1010.03 1010.76 1011.57 1012.50 1014.08 1015.31 1015.74 1015.43 1014.50 1012.36 1011.46 1011.05 1010.13 1010.49 1010.72 1010.39 1010.70 1010.68 1010.65 1010.78 1010.38 1010.68 1009.94 1008.18 1007.40 1007.00 1006.50 1006.02 1005.62 1004.70 1004.39 1004.57 1005.34
1006.24 1005.72 1005.37 1005.53 1005.93 1006.47 1006.99 1007.34 1007.79 1008.09 1008.36 1008.71 1009.29 1009.24 1009.80 1009.88 1010.98 1011.82 1012.09 1011.21 1010.76 1010.18 1012.41 1012.57 1011.17 1011.11 1010.91 1010.36 1010.02 1009.57 1010.44 1010.03 1009.81 1009.25 1009.50 1009.83 1008.46 1007.42 1007.24 1007.02 1006.88 1006.70 1006.05 1005.32 1005.13 1005.18 1006.04
1005.09 1004.47 1003.87 1004.11 1004.62 1005.29 1005.93 1006.56 1006.92 1007.41 1007.75 1007.92 1008.66 1008.89 1009.00 1009.45 1009.85 1011.46 1010.68 1010.01 1010.04 1010.64 1010.08 1010.08 1010.26 1010.11 1010.18 1010.63 1009.05 1008.68 1009.48 1009.12 1008.87 1008.51 1008.01 1007.72 1006.88 1006.97 1007.03 1007.42 1007.14 1006.64 1006.11 1005.76 1005.60 1005.72 1006.24
1003.84 1003.42 1002.88 1002.92 1003.38 1004.06 1004.79 1005.47 1006.09 1006.59 1006.92 1007.41 1007.80 1008.20 1008.55 1009.19 1009.67 1009.99 1010.31 1010.43 1010.22 1010.92 1010.22 1008.21 1008.96 1008.67 1009.19 1009.72 1008.45 1007.72 1008.58 1008.35 1008.23 1007.54 1007.45 1007.61 1006.65 1007.08 1006.93 1007.17 1007.10 1006.28 1006.11 1006.66 1006.60 1006.31 1005.28
1002.74 1002.34 1002.07 1001.95 1002.28 1002.82 1003.64 1004.39 1005.06 1005.57 1006.05 1006.34 1006.74 1007.49 1007.93 1008.29 1008.80 1008.63 1009.47 1010.63 1011.12 1011.63 1009.63 1006.12 1006.34 1006.46 1007.02 1007.53 1006.08 1007.16 1007.76 1008.00 1007.40 1007.48 1007.37 1006.72 1006.87 1007.08 1006.84 1006.80 1006.90 1006.76 1007.01 1007.46 1007.14 1006.56 1005.90
1001.20 1000.77 1000.69 1000.71 1001.09 1001.64 1002.50 1003.40 1004.10 1004.74 1005.29 1005.66 1005.86 1006.72 1007.62 1008.04 1008.68 1008.22 1009.44 1011.05 1011.90 1011.76 1008.24 1004.43 1004.74 1005.58 1005.99 1006.62 1006.10 1006.06 1007.26 1008.00 1008.31 1007.78 1007.39 1006.64 1007.00 1007.06 1006.82 1007.02 1007.19 1007.58 1008.05 1007.80 1007.50 1006.90 1005.49
999.12 998.71 998.73 999.03 999.49 1000.36 1001.33 1002.38 1003.23 1003.92 1004.57 1005.13 1005.49 1006.42 1006.89 1006.93 1007.33 1008.02 1009.30 1011.04 1012.45 1009.84 1008.19 1005.39 1004.91 1005.18 1004.84 1005.42 1005.94 1005.64 1006.57 1006.98 1006.69 1007.27 1006.67 1006.94 1006.70 1007.18 1007.19 1007.21 1007.76 1007.73 1007.72 1007.16 1006.87 1006.01 1004.69
996.57 995.88 996.49 997.21 997.87 998.94 1000.14 1001.33 1002.29 1003.15 1003.98 1004.65 1005.29 1006.06 1006.32 1006.14 1006.60 1007.98 1008.66 1010.03 1009.29 1007.32 1006.33 1004.20 1004.68 1005.03 1004.43 1004.55 1005.07 1005.10 1005.92 1006.08 1006.41 1005.64 1005.26 1005.64 1005.57 1005.93 1006.68 1006.28 1006.20 1006.57 1006.60 1005.74 1005.18 1005.04 1004.13
994.70 994.24 994.70 995.47 996.28 997.56 999.03 1000.29 1001.44 1002.40 1003.40 1004.26 1005.19 1005.88 1006.37 1005.81 1006.41 1006.30 1007.89 1007.64 1006.04 1005.14 1004.76 1003.79 1004.02 1003.77 1003.88 1003.66 1003.53 1004.35 1004.19 1004.43 1004.46 1004.63 1004.41 1003.56 1003.45 1003.67 1005.04 1006.27 1005.93 1005.83 1006.03 1006.31 1005.77 1005.64 1005.67
993.00 992.60 993.08 993.75 994.79 996.23 998.02 999.46 1000.73 1001.79 1002.93 1003.99 1004.87 1005.46 1005.61 1005.51 1005.55 1005.21 1006.01 1005.74 1005.38 1003.57 1002.20 1002.69 1002.60 1003.12 1002.54 1002.40 1002.99 1003.03 1003.55 1002.71 1002.85 1003.55 1003.94 1003.51 1003.32 1004.09 1004.69 1005.85 1005.83 1005.24 1005.96 1006.52 1006.24 1005.83 1005.00
991.37 990.41 991.57 992.35 993.73 995.48 997.24 998.77 1000.08 1001.25 1002.47 1003.60 1004.79 1004.98 1004.07 1004.74 1005.04 1003.84 1003.29 1004.61 1004.64 1003.25 1001.81 1001.91 1001.10 1001.79 1001.80 1001.59 1001.68 1001.69 1001.30 1001.11 1001.32 1001.77 1003.33 1003.71 1003.65 1004.84 1004.47 1004.93 1004.57 1005.35 1005.25 1005.64 1005.81 1005.51 1004.41
991.23 990.53 991.17 992.22 993.63 995.16 996.71 998.21 999.53 1000.74 1002.02 1003.43 1003.94 1003.61 1003.00 1003.72 1002.62 1002.40 1002.60 1003.57 1003.06 1002.45 1002.33 1001.44 1000.59 1000.67 1000.16 1000.93 1001.08 1001.40 1000.58 1000.72 1000.11 1000.93 1001.77 1003.13 1004.06 1004.02 1004.01 1004.51 1004.56 1004.37 1004.77 1005.16 1004.88 1004.86 1004.37
992.43 991.69 991.93 992.73 993.79 995.06 996.39 997.78 999.03 1000.22 1001.37 1002.31 1003.01 1002.97 1002.68 1002.92 1000.65 1002.22 1003.13 1002.84 1001.13 1001.80 1001.85 1001.93 1000.82 1000.52 999.81 1000.02 1000.68 1000.53 1000.61 1000.38 1000.60 1000.87 1001.53 1002.99 1003.31 1003.71 1003.90 1004.86 1004.45 1003.86 1004.33 1004.36 1004.75 1004.71 1003.31
993.53 993.27 992.93 993.30 994.01 994.97 996.11 997.39 998.55 999.63 1000.66 1001.48 1002.51 1002.37 1002.74 1002.31 1000.71 1001.38 1002.14 1001.57 1000.87 1000.52 1000.74 1001.55 1000.68 1000.37 999.91 1000.21 1000.00 1000.16 1000.30 1001.11 1001.12 1001.30 1002.05 1002.80 1002.51 1002.27 1002.19 1002.48 1002.93 1003.51 1003.37 1003.54 1003.77 1003.64 1003.24
993.80 993.37 993.24 993.50 994.11 994.75 995.74 996.92 997.98 998.99 1000.04 1001.01 1001.65 1001.10 1001.04 1001.53 1001.11 1000.84 1001.13 1000.57 1000.12 999.74 999.91 1000.30 1000.58 999.79 999.90 999.72 1000.26 1000.14 1000.73 1001.47 1001.86 1001.93 1002.75 1002.80 1002.60 1002.71 1002.59 1002.11 1002.34 1002.15 1002.79 1002.65 1002.22 1002.13 1002.72
993.03 992.27 992.48 992.72 993.51 994.43 995.41 996.52 997.49 998.62 999.80 1000.69 1000.79 1000.98 1001.43 1000.97 1000.46 1000.93 999.99 998.95 998.74 998.85 999.22 999.65 1000.47 1000.41 999.62 998.82 999.10 1000.20 1001.13 1001.77 1002.07 1002.65 1003.08 1003.15 1003.68 1003.89 1003.53 1003.25 1002.66 1002.53 1001.68 1001.85 1001.96 1001.85 1001.47
991.46 989.89 990.17 991.41 992.64 993.75 994.84 995.98 997.11 998.16 999.55 999.93 1000.56 1001.13 1001.05 1000.18 999.85 999.83 999.08 998.09 997.35 997.70 998.40 998.05 999.11 999.67 999.26 998.99 999.60 1000.95 1001.89 1002.64 1002.82 1003.57 1003.72 1004.22 1004.35 1004.86 1004.20 1003.95 1003.80 1002.97 1001.47 1001.49 1001.18 1000.99 1001.15
991.53 988.74 989.08 990.44 991.81 993.13 994.25 995.45 996.60 997.71 998.60 998.81 1000.01 1000.69 1001.07 1000.10 999.22 998.97 998.69 998.26 997.07 997.02 997.43 997.66 998.30 998.55 999.37 1000.34 1001.25 1002.46 1003.67 1004.49 1004.74 1004.90 1004.97 1005.03 1005.40 1006.09 1005.69 1004.96 1004.18 1001.29 1001.40 1001.27 1001.15 1000.80 1000.74
992.27 991.03 990.27 990.81 991.79 992.80 993.96 995.06 996.24 997.30 998.32 998.72 999.60 999.77 1000.45 999.73 1000.36 998.53 998.63 998.15 998.02 997.37 997.38 997.22 997.49 998.33 999.72 1001.11 1003.43 1004.44 1005.23 1005.46 1005.02 1005.31 1005.53 1005.88 1006.15 1006.99 1006.74 1006.12 1003.74 1001.88 1000.58 1000.22 1000.44 1000.04 1000.23
993.11 992.21 991.41 991.30 992.00 992.74 993.85 994.84 995.94 997.01 997.95 998.85 999.21 1000.01 1000.10 1000.38 999.46 998.72 998.29 998.09 997.90 997.03 998.17 997.89 998.13 998.53 999.63 1001.92 1002.66 1002.89 1003.10 1004.25 1005.45 1005.82 1006.07 1005.48 1006.07 1006.50 1007.08 1006.01 1003.83 1001.30 1001.04 1000.48 1001.35 1000.30 1000.48
993.54 992.88 992.30 991.72 992.32 993.08 993.80 994.65 995.67 996.62 997.61 998.71 999.15 999.75 1000.17 1000.13 999.29 999.49 999.00 998.06 998.13 998.58 998.89 999.65 999.65 999.97 999.38 1001.71 1002.62 1002.65 1002.65 1002.58 1003.38 1004.24 1005.66 1005.92 1006.30 1006.06 1005.94 1005.48 1003.01 1001.12 1001.27 1001.54 1001.64 1000.54 1000.38
994.07 993.32 992.58 991.51 992.11 992.97 993.75 994.35 995.26 996.25 997.29 998.39 999.00 999.59 1000.09 999.92 1000.45 1000.85 1000.72 1000.09 997.96 997.65 997.87 999.66 1000.25 1001.17 1000.83 1001.37 1001.59 1001.36 1002.35 1002.54 1002.37 1002.10 1002.93 1003.52 1004.65 1004.81 1004.94 1004.50 1002.53 1001.34 1001.81 1001.58 1001.14 1001.15 1001.64
994.84 994.09 993.31 992.70 992.43 993.04 993.54 994.35 995.20 996.09 997.00 998.35 999.21 999.69 999.58 1000.25 1001.16 1000.47 1000.82 1000.35 998.74 996.52 996.75 998.88 998.92 999.95 1000.80 1000.92 1001.12 1001.56 1001.85 1001.41 1000.98 1001.12 1001.57 1002.06 1001.48 1002.03 1002.48 1001.41 1001.13 1001.02 1000.65 1001.25 1002.12 1002.10 1002.75
Thickness
5516 5532 5547 5562 5573 5580 5598 5605 5611 5624 5632 5639 5645 5647 5649 5654 5656 5659 5662 5666 5667 5670 5676 5680 5687 5693 5707 5714 5726 5740 5739 5743 5751 5756 5756 5758 5759 5765 5758 5769 5772 5764 5782 5780 5784 5780 5779
5497 5512 5529 5545 5557 5567 5578 5590 5599 5608 5620 5630 5637 5641 5643 5648 5649 5651 5654 5657 5658 5661 5666 5672 5677 5684 5696 5698 5734 5734 5737 5741 5747 5750 5750 5755 5755 5759 5758 5758 5757 5766 5767 5773 5779 5778 5781
5478 5493 5510 5528 5543 5551 5565 5572 5583 5594 5607 5619 5627 5631 5636 5641 5641 5643 5645 5647 5648 5650 5655 5661 5667 5677 5687 5703 5726 5727 5729 5737 5740 5742 5741 5746 5750 5746 5751 5747 5759 5759 5751 5774 5775 5777 5773
5465 5477 5493 5508 5525 5540 5549 5559 5565 5577 5591 5605 5617 5622 5627 5632 5633 5634 5633 5636 5637 5639 5644 5649 5657 5669 5680 5715 5719 5720 5724 5725 5730 5731 5732 5738 5741 5740 5739 5751 5748 5746 5757 5750 5777 5774 5768
5451 5465 5478 5493 5508 5523 5534 5545 5560 5570 5577 5591 5603 5611 5618 5623 5624 5623 5623 5623 5625 5628 5633 5638 5648 5657 5675 5702 5701 5714 5718 5716 5720 5721 5724 5725 5727 5728 5731 5726 5738 5748 5743 5757 5760 5770 5763
5440 5453 5467 5480 5494 5507 5518 5536 5550 5554 5563 5575 5588 5599 5608 5610 5612 5613 5611 5608 5612 5615 5621 5631 5643 5643 5677 5692 5705 5709 5715 5712 5708 5707 5705 5705 5712 5714 5723 5726 5725 5747 5747 5754 5745 5758 5749
5431 5443 5456 5470 5481 5496 5508 5523 5535 5547 5558 5566 5579 5587 5596 5601 5602 5602 5597 5598 5601 5604 5619 5645 5660 5668 5679 5689 5693 5695 5701 5701 5704 5700 5695 5703 5698 5709 5729 5734 5738 5736 5733 5736 5754 5762 5735
5424 5435 5448 5461 5472 5483 5494 5506 5518 5536 5547 5556 5566 5578 5583 5590 5590 5593 5600 5616 5629 5638 5617 5629 5648 5655 5665 5679 5676 5689 5694 5687 5690 5691 5700 5690 5693 5725 5729 5729 5725 5721 5719 5726 5740 5747 5723
5424 5431 5444 5454 5465 5473 5482 5492 5507 5522 5536 5547 5556 5568 5575 5578 5584 5578 5600 5615 5621 5620 5622 5632 5639 5646 5654 5658 5672 5681 5685 5688 5685 5688 5697 5694 5714 5721 5717 5709 5706 5714 5713 5719 5719 5725 5721
5424 5429 5438 5446 5456 5466 5474 5483 5495 5508 5523 5536 5549 5560 5563 5565 5569 5579 5584 5598 5601 5603 5591 5623 5628 5641 5648 5651 5659 5688 5687 5684 5683 5686 5692 5689 5713 5703 5706 5700 5705 5703 5724 5710 5707 5702 5698
5423 5428 5434 5441 5447 5458 5466 5474 5485 5499 5512 5530 5544 5551 5555 5557 5564 5573 5587 5581 5580 5579 5551 5631 5635 5657 5658 5652 5680 5672 5685 5675 5672 5676 5684 5685 5690 5685 5689 5697 5706 5698 5706 5696 5698 5695 5698
5424 5431 5434 5438 5442 5450 5458 5466 5476 5487 5501 5517 5533 5540 5542 5543 5549 5569 5565 5560 5551 5539 5542 5623 5632 5634 5639 5645 5659 5668 5662 5667 5668 5666 5673 5684 5690 5686 5690 5696 5697 5695 5684 5686 5688 5686 5669
5431 5437 5440 5443 5443 5444 5450 5457 5467 5477 5489 5502 5517 5525 5533 5540 5549 5556 5554 5536 5509 5527 5571 5599 5607 5622 5639 5636 5639 5651 5646 5644 5651 5638 5652 5663 5666 5677 5684 5674 5680 5678 5673 5660 5658 5661 5667
5441 5449 5448 5446 5446 5442 5441 5447 5456 5466 5477 5487 5499 5506 5521 5532 5540 5538 5541 5522 5523 5557 5576 5611 5607 5608 5623 5636 5636 5641 5635 5635 5647 5661 5663 5646 5647 5664 5672 5678 5674 5673 5675 5670 5653 5662 5681
5444 5451 5451 5448 5447 5442 5436 5437 5445 5455 5463 5473 5477 5483 5495 5514 5523 5536 5529 5519 5542 5572 5589 5599 5599 5599 5608 5628 5637 5630 5636 5641 5655 5660 5647 5658 5661 5688 5677 5673 5681 5668 5658 5681 5669 5670 5645
5446 5451 5450 5448 5444 5439 5431 5428 5431 5440 5447 5455 5460 5468 5480 5503 5515 5528 5521 5523 5548 5585 5604 5595 5591 5597 5603 5622 5622 5629 5622 5652 5654 5658 5665 5662 5648 5662 5665 5665 5667 5667 5671 5641 5653 5627 5633
5443 5448 5442 5441 5437 5430 5424 5420 5419 5426 5432 5438 5442 5448 5480 5490 5503 5512 5518 5519 5542 5575 5596 5590 5607 5602 5610 5615 5624 5627 5637 5659 5663 5663 5658 5653 5653 5630 5654 5643 5652 5651 5649 5653 5657 5652 5649
5429 5430 5425 5425 5422 5419 5416 5414 5409 5410 5415 5413 5429 5435 5476 5482 5505 5501 5512 5512 5555 5570 5577 5591 5606 5613 5622 5618 5618 5616 5633 5645 5665 5661 5643 5649 5633 5626 5639 5654 5660 5659 5648 5647 5639 5642 5656
5415 5417 5415 5414 5413 5412 5410 5407 5403 5398 5398 5411 5415 5439 5461 5470 5499 5484 5484 5512 5560 5561 5564 5569 5587 5607 5624 5619 5606 5623 5628 5644 5650 5648 5639 5635 5618 5611 5617 5623 5640 5642 5649 5654 5651 5651 5652
5403 5405 5408 5411 5410 5408 5406 5402 5398 5393 5392 5399 5403 5418 5432 5447 5490 5499 5485 5505 5534 5565 5569 5566 5587 5599 5607 5606 5620 5620 5623 5627 5636 5640 5632 5634 5636 5634 5625 5640 5649 5631 5644 5652 5647 5631 5642
5398 5403 5404 5403 5403 5404 5401 5396 5393 5391 5386 5389 5388 5408 5442 5438 5460 5484 5501 5517 5529 5542 5562 5574 5572 5590 5591 5598 5601 5611 5615 5615 5618 5622 5620 5625 5618 5629 5638 5651 5644 5647 5640 5646 5646 5655 5633
5396 5403 5402 5403 5401 5398 5396 5390 5387 5383 5380 5377 5381 5396 5422 5451 5474 5469 5491 5523 5533 5538 5548 5558 5558 5575 5595 5605 5607 5602 5606 5604 5603 5609 5608 5616 5602 5609 5611 5625 5632 5626 5648 5644 5642 5650 5653
5403 5414 5407 5400 5396 5396 5393 5389 5383 5377 5370 5368 5379 5393 5413 5442 5473 5470 5486 5518 5540 5552 5551 5574 5581 5579 5587 5605 5611 5605 5595 5593 5597 5588 5593 5592 5593 5586 5593 5610 5605 5591 5632 5634 5644 5651 5645
5397 5414 5399 5395 5396 5394 5389 5385 5380 5373 5373 5380 5379 5387 5394 5424 5456 5470 5482 5511 5532 5541 5547 5568 5575 5573 5592 5582 5580 5576 5570 5568 5571 5574 5579 5578 5579 5576 5576 5582 5556 5627 5640 5632 5629 5639 5644
5387 5392 5394 5392 5392 5391 5386 5381 5374 5370 5367 5373 5376 5385 5389 5421 5427 5470 5488 5494 5517 5538 5544 5557 5570 5580 5570 5567 5541 5535 5533 5537 5550 5560 5564 5571 5570 5543 5550 5548 5590 5609 5630 5627 5620 5630 5642
5381 5385 5390 5393 5388 5385 5381 5377 5371 5365 5362 5364 5371 5375 5392 5408 5429 5459 5478 5491 5500 5522 5518 5537 5557 5563 5554 5533 5542 5542 5550 5547 5536 5538 5542 5565 5561 5553 5533 5543 5553 5607 5619 5626 5614 5600 5632
5378 5379 5383 5387 5384 5380 5377 5372 5365 5362 5358 5358 5365 5374 5384 5402 5434 5440 5457 5493 5508 5504 5502 5496 5516 5531 5545 5523 5525 5541 5547 5562 5544 5543 5532 5532 5526 5537 5537 5537 5568 5608 5603 5606 5577 5604 5618
5372 5376 5378 5385 5380 5375 5370 5366 5362 5359 5355 5356 5364 5370 5382 5402 5410 5412 5431 5455 5502 5502 5505 5488 5494 5485 5505 5527 5537 5530 5529 5533 5544 5559 5544 5543 5535 5536 5535 5530 5546 5597 5581 5581 5595 5592 5591
5363 5369 5372 5373 5376 5370 5365 5360 5358 5357 5356 5355 5356 5368 5381 5392 5402 5413 5420 5438 5466 5514 5524 5499 5517 5502 5501 5506 5524 5525 5527 5536 5548 5540 5554 5541 5560 5556 5555 5564 5582 5587 5589 5584 5579 5572 5568